#timestamp,LO_Frequency,Hit 
1506124815.7,286047001.3,N
1506124835.5,286047004.1,N
1506124855.4,286047003.5,N
1506124875.2,286047005.4,N
1506124895.0,286047003.0,N
1506124895.9,286047003.0,N
1506124915.8,286047005.9,P
1506124935.6,286047001.0,N
1506124955.4,286047002.3,N
1506124975.3,286047003.5,N
1506124995.1,286047002.0,N
1506125015.8,286047002.8,N
1506125035.7,286046997.2,N
1506125055.5,286046998.6,N
1506125075.3,286047002.7,N
1506125095.2,286047000.3,N
1506125115.9,286047000.5,N
1506125135.7,286047002.0,N
1506125155.6,286046998.7,N
1506125175.4,286046994.9,N
1506125195.2,286046995.0,N
1506125215.1,286047000.8,N
1506125216.0,286047000.8,N
1506125235.8,286046998.5,N
1506125255.6,286046998.9,N
1506125275.4,286047000.8,N
1506125295.3,286046997.1,N
1506125315.1,286046998.2,N
1506125335.8,286047001.3,N
1506125355.7,286047003.1,N
1506125375.5,286047003.7,N
1506125395.3,286047004.1,N
1506125415.2,286047003.9,N
1506125435.9,286047005.9,N
1506125455.7,286047003.5,N
1506125475.6,286047002.4,N
1506125495.4,286046998.3,N
1506125515.2,286047001.9,N
1506125535.0,286047003.1,N
1506125536.0,286047003.1,N
1506125555.8,286047003.8,N
1506125575.6,286047001.5,N
1506125595.4,286047004.1,N
1506125615.3,286047001.4,N
1506125635.1,286047003.3,N
1506125655.8,286047003.2,N
1506125675.7,286046999.9,N
1506125695.5,286047000.5,N
1506125715.3,286047001.3,N
1506125735.2,286047001.7,N
1506125755.9,286047003.0,N
1506125775.7,286047005.9,N
1506125795.6,286047003.5,N
1506125815.4,286047004.7,N
1506125835.2,286047007.5,P
1506125855.1,286047006.6,N
1506125856.0,286047006.6,N
1506125875.8,286047004.9,N
1506125895.6,286047007.0,P
1506125915.5,286047002.8,P
1506125935.3,286047002.7,N
1506125955.1,286046999.1,N
1506125975.9,286046995.4,N
1506125995.7,286046997.2,N
1506126015.5,286046999.2,N
1506126035.4,286046997.6,N
1506126055.2,286046995.2,N
1506126075.0,286046997.4,N
1506126075.9,286046997.4,N
1506126095.8,286046998.3,N
1506126115.6,286046997.0,N
1506126135.4,286046995.4,N
1506126155.2,286046994.9,N
1506126175.1,286046997.5,N
1506126176.0,286046997.5,N
1506126195.8,286046996.8,N
1506126215.6,286046995.3,N
1506126235.5,286046995.7,N
1506126255.3,286046995.7,N
1506126275.1,286046993.9,N
1506126295.9,286046994.0,N
1506126315.7,286046993.3,N
1506126335.5,286046992.3,N
1506126355.4,286046992.3,N
1506126375.2,286046994.3,N
1506126395.0,286046993.7,N
1506126395.9,286046993.7,N
1506126415.8,286046993.7,N
1506126435.6,286046996.2,N
1506126455.4,286046996.0,N
1506126475.2,286046993.8,N
1506126495.1,286046991.9,P
1506126496.0,286046991.9,P
1506126515.8,286046999.3,N
1506126535.7,286046999.5,N
1506126555.5,286046998.9,N
1506126575.3,286046996.8,N
1506126595.1,286046996.8,N
1506126615.9,286046998.3,N
1506126635.7,286046999.0,N
1506126655.5,286047000.2,N
1506126675.4,286047002.8,N
1506126695.2,286047000.6,N
1506126715.0,286046998.1,N
1506126715.9,286046998.1,N
1506126735.8,286047002.8,N
1506126755.6,286047004.3,N
1506126775.4,286047001.0,N
1506126795.3,286046997.2,N
1506126815.1,286046995.0,N
1506126816.0,286046995.0,N
1506126835.8,286046997.6,N
1506126855.7,286046995.3,N
1506126875.5,286046997.6,N
1506126895.3,286046998.0,N
1506126915.2,286046997.6,N
1506126935.9,286046994.9,N
1506126955.7,286046995.2,N
1506126975.5,286046994.9,N
1506126995.4,286046997.3,N
1506127015.2,286046995.1,N
1506127035.0,286046993.3,N
1506127035.9,286046993.3,N
1506127055.8,286046993.3,N
1506127075.6,286046995.3,N
1506127095.4,286046995.2,N
1506127115.3,286046995.3,N
1506127135.1,286046998.3,N
1506127136.0,286046998.3,N
1506127155.8,286046998.7,N
1506127175.7,286046999.4,N
1506127195.5,286047000.5,N
1506127215.3,286046998.2,N
1506127235.2,286046998.4,N
1506127255.9,286047000.9,N
1506127275.7,286046998.8,N
1506127295.6,286046998.8,N
1506127315.4,286047002.8,N
1506127335.2,286047004.0,N
1506127355.0,286047004.3,N
1506127355.9,286047004.3,N
1506127375.8,286047001.4,N
1506127395.6,286047000.1,N
1506127415.4,286047000.9,N
1506127435.3,286047000.3,N
1506127455.1,286047002.7,N
1506127475.8,286046998.4,N
1506127495.7,286046997.0,N
1506127515.5,286046997.6,N
1506127535.3,286046998.8,N
1506127555.2,286047000.9,N
1506127575.9,286046999.1,N
1506127595.7,286046996.8,N
1506127615.5,286047000.1,N
1506127635.4,286047003.7,N
1506127655.2,286047000.5,N
1506127675.0,286046996.6,N
1506127675.9,286046996.6,N
1506127695.8,286046996.9,N
1506127715.6,286046998.5,N
1506127735.4,286047000.4,N
1506127755.3,286047004.0,N
1506127775.1,286047004.3,N
1506127795.8,286046999.9,N
1506127815.7,286047000.5,N
1506127835.5,286047000.5,N
1506127855.3,286046999.9,N
1506127875.2,286047004.1,N
1506127895.9,286047003.5,N
1506127915.7,286047002.9,N
1506127935.6,286047003.8,N
1506127955.4,286047003.6,N
1506127975.2,286047006.0,N
1506127995.0,286047001.7,N
1506127996.0,286047001.7,N
1506128015.8,286047003.1,N
1506128035.6,286047006.3,N
1506128055.4,286047007.1,N
1506128075.3,286047005.7,N
1506128095.1,286047005.5,N
1506128115.8,286047001.5,N
1506128135.7,286046999.8,N
1506128155.5,286047003.4,N
1506128175.3,286047003.1,N
1506128195.2,286047006.3,N
1506128215.9,286047006.6,N
1506128235.7,286047008.3,N
1506128255.6,286047012.2,P
1506128275.4,286047007.0,N
1506128295.2,286047010.4,N
1506128315.1,286047009.2,N
1506128316.0,286047009.2,N
1506128335.8,286047006.0,N
1506128355.6,286047005.5,N
1506128375.5,286047004.9,N
1506128395.3,286047004.5,N
